Time,TemperatureF,DewpointF,PressureIn,WindDirection,WindDirectionDegrees,WindSpeedMPH,WindSpeedGustMPH,Humidity,HourlyPrecipIn,Conditions,Clouds,dailyrainin,SoftwareType,DateUTC
2013-09-27 00:43:00,38.0,24.0,-100.00,WSW,239,0.0,3.0,57,0.00,,,-99.99,,2013-09-27 07:43:00,
2013-09-27 01:11:00,39.0,25.0,-100.00,NE,52,2.0,8.0,57,0.00,,,-99.99,,2013-09-27 08:11:00,
2013-09-27 01:22:00,37.0,24.0,-100.00,NE,51,1.0,3.0,60,0.00,,,-99.99,,2013-09-27 08:22:00,
2013-09-27 01:42:00,37.0,25.0,-100.00,North,1,2.0,4.0,61,0.00,,,-99.99,,2013-09-27 08:42:00,
2013-09-27 02:11:00,37.0,25.0,-100.00,NNE,23,3.0,5.0,62,0.00,,,-99.99,,2013-09-27 09:11:00,
2013-09-27 02:22:00,38.0,26.0,-100.00,North,8,3.0,9.0,61,0.00,,,-99.99,,2013-09-27 09:22:00,
2013-09-27 02:33:00,38.0,26.0,-100.00,North,8,3.0,9.0,61,0.00,,,-99.99,,2013-09-27 09:33:00,
2013-09-27 02:44:00,38.0,26.0,-100.00,North,8,3.0,9.0,61,0.00,,,-99.99,,2013-09-27 09:44:00,
2013-09-27 02:53:00,36.0,25.0,-100.00,SW,232,1.0,3.0,64,0.00,,,-99.99,,2013-09-27 09:53:00,
2013-09-27 03:12:00,35.0,25.0,-100.00,ENE,61,0.0,2.0,67,0.00,,,-99.99,,2013-09-27 10:12:00,
2013-09-27 03:41:00,36.0,26.0,-100.00,WNW,298,0.0,2.0,67,0.00,,,-99.99,,2013-09-27 10:41:00,
2013-09-27 03:42:00,36.0,25.0,-100.00,WSW,246,2.0,3.0,65,0.00,,,-99.99,,2013-09-27 10:42:00,
2013-09-27 03:52:00,36.0,25.0,-100.00,WSW,246,2.0,3.0,65,0.00,,,-99.99,,2013-09-27 10:52:00,
2013-09-27 04:12:00,36.0,26.0,-100.00,WNW,298,0.0,2.0,67,0.00,,,-99.99,,2013-09-27 11:12:00,
2013-09-27 04:22:00,36.0,26.0,-100.00,WNW,298,0.0,2.0,67,0.00,,,-99.99,,2013-09-27 11:22:00,
2013-09-27 04:33:00,36.0,26.0,-100.00,WNW,298,0.0,2.0,67,0.00,,,-99.99,,2013-09-27 11:33:00,
2013-09-27 05:12:00,35.0,26.0,-100.00,North,3,2.0,4.0,69,0.00,,,-99.99,,2013-09-27 12:12:00,
2013-09-27 05:21:00,35.0,26.0,-100.00,West,261,1.0,3.0,68,0.00,,,-99.99,,2013-09-27 12:21:00,
2013-09-27 05:42:00,36.0,25.0,-100.00,West,261,2.0,4.0,65,0.00,,,-99.99,,2013-09-27 12:42:00,
2013-09-27 05:51:00,35.0,26.0,-100.00,NW,311,0.0,1.0,68,0.00,,,-99.99,,2013-09-27 12:51:00,
2013-09-27 05:52:00,36.0,26.0,-100.00,West,277,1.0,3.0,66,0.00,,,-99.99,,2013-09-27 12:52:00,
2013-09-27 06:02:00,36.0,26.0,-100.00,West,277,1.0,3.0,66,0.00,,,-99.99,,2013-09-27 13:02:00,
2013-09-27 06:11:00,36.0,26.0,-100.00,West,277,1.0,3.0,66,0.00,,,-99.99,,2013-09-27 13:11:00,
2013-09-27 06:21:00,35.0,26.0,-100.00,NW,311,0.0,1.0,68,0.00,,,-99.99,,2013-09-27 13:21:00,
2013-09-27 06:32:00,35.0,26.0,-100.00,NW,311,0.0,1.0,68,0.00,,,-99.99,,2013-09-27 13:32:00,
2013-09-27 06:42:00,35.0,26.0,-100.00,NW,311,0.0,1.0,68,0.00,,,-99.99,,2013-09-27 13:42:00,
2013-09-27 07:21:00,34.0,26.0,-100.00,NNE,16,1.0,3.0,71,0.00,,,-99.99,,2013-09-27 14:21:00,
2013-09-27 07:42:00,35.0,26.0,-100.00,NNW,344,0.0,1.0,70,0.00,,,-99.99,,2013-09-27 14:42:00,
2013-09-27 08:01:00,37.0,25.0,-100.00,South,179,1.0,3.0,62,0.00,,,-99.99,,2013-09-27 15:01:00,
2013-09-27 08:11:00,35.0,26.0,-100.00,SSW,199,1.0,2.0,68,0.00,,,-99.99,,2013-09-27 15:11:00,
2013-09-27 08:21:00,35.0,26.0,-100.00,SSW,199,1.0,2.0,68,0.00,,,-99.99,,2013-09-27 15:21:00,
2013-09-27 08:44:00,37.0,25.0,-100.00,South,179,1.0,3.0,62,0.00,,,-99.99,,2013-09-27 15:44:00,
2013-09-27 08:54:00,37.0,25.0,-100.00,South,179,1.0,3.0,62,0.00,,,-99.99,,2013-09-27 15:54:00,
2013-09-27 09:24:00,39.0,26.0,-100.00,SSE,167,1.0,4.0,59,0.00,,,-99.99,,2013-09-27 16:24:00,
2013-09-27 09:33:00,39.0,26.0,-100.00,SSE,167,1.0,4.0,59,0.00,,,-99.99,,2013-09-27 16:33:00,
2013-09-27 09:44:00,39.0,26.0,-100.00,SSE,167,1.0,4.0,59,0.00,,,-99.99,,2013-09-27 16:44:00,
2013-09-27 09:53:00,43.0,26.0,-100.00,ESE,112,3.0,7.0,51,0.00,,,-99.99,,2013-09-27 16:53:00,
2013-09-27 10:03:00,43.0,26.0,-100.00,ESE,112,3.0,7.0,51,0.00,,,-99.99,,2013-09-27 17:03:00,
2013-09-27 10:43:00,44.0,24.0,-100.00,ESE,102,4.0,8.0,45,0.00,,,-99.99,,2013-09-27 17:43:00,
2013-09-27 11:21:00,44.0,23.0,-100.00,South,181,5.0,12.0,44,0.00,,,-99.99,,2013-09-27 18:21:00,
2013-09-27 11:33:00,44.0,23.0,-100.00,South,181,5.0,12.0,44,0.00,,,-99.99,,2013-09-27 18:33:00,
2013-09-27 12:12:00,48.0,20.0,-100.00,East,95,4.0,10.0,32,0.00,,,-99.99,,2013-09-27 19:12:00,
2013-09-27 12:22:00,48.0,20.0,-100.00,ENE,78,4.0,10.0,32,0.00,,,-99.99,,2013-09-27 19:22:00,
2013-09-27 12:32:00,48.0,20.0,-100.00,ENE,78,4.0,10.0,32,0.00,,,-99.99,,2013-09-27 19:32:00,
2013-09-27 12:42:00,48.0,20.0,-100.00,ENE,78,4.0,10.0,32,0.00,,,-99.99,,2013-09-27 19:42:00,
2013-09-27 12:53:00,51.0,20.0,-100.00,SSE,148,3.0,8.0,29,0.00,,,-99.99,,2013-09-27 19:53:00,
2013-09-27 13:03:00,51.0,20.0,-100.00,SSE,148,3.0,8.0,29,0.00,,,-99.99,,2013-09-27 20:03:00,
2013-09-27 13:12:00,51.0,20.0,-100.00,SSE,148,3.0,8.0,29,0.00,,,-99.99,,2013-09-27 20:12:00,
2013-09-27 13:43:00,52.0,22.0,-100.00,SE,145,3.0,7.0,30,0.00,,,-99.99,,2013-09-27 20:43:00,
2013-09-27 14:21:00,55.0,20.0,-100.00,SE,131,5.0,13.0,25,0.00,,,-99.99,,2013-09-27 21:21:00,
2013-09-27 14:43:00,55.0,20.0,-100.00,East,82,3.0,8.0,25,0.00,,,-99.99,,2013-09-27 21:43:00,
2013-09-27 15:14:00,56.0,19.0,-100.00,ESE,121,2.0,7.0,23,0.00,,,-99.99,,2013-09-27 22:14:00,
2013-09-27 15:24:00,55.0,19.0,-100.00,East,80,4.0,11.0,24,0.00,,,-99.99,,2013-09-27 22:24:00,
2013-09-27 15:43:00,58.0,17.0,-100.00,NNE,31,3.0,9.0,20,0.00,,,-99.99,,2013-09-27 22:43:00,
2013-09-27 15:53:00,58.0,17.0,-100.00,NNE,31,3.0,9.0,20,0.00,,,-99.99,,2013-09-27 22:53:00,
2013-09-27 16:12:00,59.0,17.0,-100.00,East,99,3.0,9.0,19,0.00,,,-99.99,,2013-09-27 23:12:00,
2013-09-27 16:22:00,57.0,17.0,-100.00,ENE,64,5.0,10.0,21,0.00,,,-99.99,,2013-09-27 23:22:00,
2013-09-27 16:43:00,57.0,16.0,-100.00,NNE,16,7.0,12.0,20,0.00,,,-99.99,,2013-09-27 23:43:00,
2013-09-27 17:12:00,57.0,19.0,-100.00,North,4,8.0,11.0,22,0.00,,,-99.99,,2013-09-28 00:12:00,
2013-09-27 17:22:00,57.0,19.0,-100.00,North,4,8.0,11.0,22,0.00,,,-99.99,,2013-09-28 00:22:00,
2013-09-27 17:42:00,56.0,22.0,-100.00,NNE,21,7.0,12.0,26,0.00,,,-99.99,,2013-09-28 00:42:00,
2013-09-27 17:52:00,56.0,22.0,-100.00,NNE,21,7.0,12.0,26,0.00,,,-99.99,,2013-09-28 00:52:00,
2013-09-27 18:01:00,56.0,22.0,-100.00,NNE,21,7.0,12.0,26,0.00,,,-99.99,,2013-09-28 01:01:00,
2013-09-27 18:12:00,56.0,22.0,-100.00,NNE,21,7.0,12.0,26,0.00,,,-99.99,,2013-09-28 01:12:00,
2013-09-27 18:21:00,56.0,21.0,-100.00,North,7,5.0,9.0,25,0.00,,,-99.99,,2013-09-28 01:21:00,
2013-09-27 18:42:00,55.0,22.0,-100.00,North,354,6.0,9.0,27,0.00,,,-99.99,,2013-09-28 01:42:00,
2013-09-27 19:12:00,52.0,21.0,-100.00,North,6,5.0,9.0,29,0.00,,,-99.99,,2013-09-28 02:12:00,
2013-09-27 19:22:00,52.0,21.0,-100.00,North,3,5.0,9.0,29,0.00,,,-99.99,,2013-09-28 02:22:00,
2013-09-27 19:32:00,52.0,21.0,-100.00,North,3,5.0,9.0,29,0.00,,,-99.99,,2013-09-28 02:32:00,
2013-09-27 19:53:00,51.0,21.0,-100.00,North,357,4.0,8.0,31,0.00,,,-99.99,,2013-09-28 02:53:00,
2013-09-27 20:03:00,51.0,21.0,-100.00,North,357,4.0,8.0,31,0.00,,,-99.99,,2013-09-28 03:03:00,
2013-09-27 20:21:00,51.0,21.0,-100.00,NW,325,4.0,6.0,30,0.00,,,-99.99,,2013-09-28 03:21:00,
2013-09-27 20:45:00,50.0,21.0,-100.00,NNW,342,3.0,6.0,32,0.00,,,-99.99,,2013-09-28 03:45:00,
2013-09-27 21:13:00,48.0,20.0,-100.00,WNW,288,1.0,5.0,33,0.00,,,-99.99,,2013-09-28 04:13:00,
2013-09-27 22:12:00,47.0,21.0,-100.00,North,354,1.0,3.0,36,0.00,,,-99.99,,2013-09-28 05:12:00,
2013-09-27 22:43:00,46.0,20.0,-100.00,West,261,0.0,5.0,35,0.00,,,-99.99,,2013-09-28 05:43:00,
2013-09-27 22:53:00,47.0,20.0,-100.00,NNW,342,4.0,6.0,34,0.00,,,-99.99,,2013-09-28 05:53:00,
2013-09-27 23:02:00,47.0,20.0,-100.00,NNW,342,4.0,6.0,34,0.00,,,-99.99,,2013-09-28 06:02:00,
2013-09-27 23:22:00,46.0,20.0,-100.00,SSW,202,0.0,3.0,35,0.00,,,-99.99,,2013-09-28 06:22:00,
2013-09-27 23:42:00,46.0,20.0,-100.00,ENE,64,1.0,3.0,35,0.00,,,-99.99,,2013-09-28 06:42:00,
2013-09-27 23:52:00,46.0,20.0,-100.00,ENE,73,0.0,1.0,35,0.00,,,-99.99,,2013-09-28 06:52:00,